CAPE
0 0 0 0 0 0 0 0 0 0 0 0 0 0 0 0 0 0 0 0 0 0 0 0 0 0 0 0 0 0 0 0 0 0 0 0 0 0 0 0 0 0 0 0
0 0 0 0 0 0 0 0 0 0 0 0 0 0 0 0 0 0 0 0 0 0 0 0 0 0 0 0 0 0 0 0 0 0 0 0 0 0 0 0 0 0 0 0
0 0 0 0 0 0 0 0 0 0 0 0 0 0 0 0 0 0 0 0 0 0 0 0 0 0 0 0 0 0 0 0 0 0 0 0 0 0 0 0 0 0 0 0
0 0 0 0 0 0 0 0 0 0 0 0 0 0 0 0 0 0 0 0 0 0 0 0 0 0 0 0 0 0 0 0 0 0 0 0 0 0 0 0 0 0 0 0
0 0 0 0 0 0 0 0 0 0 0 0 0 0 0 0 0 0 0 0 0 0 0 0 0 0 0 0 0 0 0 0 0 0 0 0 0 0 0 0 0 0 0 0
0 0 0 0 0 0 0 0 0 0 0 0 0 0 0 0 0 0 0 0 0 0 0 0 0 0 0 0 0 0 0 0 0 0 0 0 0 0 0 0 0 0 0 0
0 0 0 0 0 0 0 0 0 0 0 0 0 0 0 0 0 0 0 0 0 0 0 0 0 0 0 0 0 0 0 0 0 0 0 0 0 0 0 0 0 0 0 0
0 0 0 0 0 0 0 0 0 0 0 0 0 0 0 0 0 0 0 0 0 0 0 0 0 0 0 0 0 0 0 0 0 0 0 0 0 0 0 0 0 0 0 0
0 0 0 0 0 0 0 0 0 0 0 0 0 0 0 0 0 0 0 0 0 0 0 0 0 0 0 0 0 0 0 0 0 0 0 0 0 0 0 0 0 0 0 0
0 0 0 0 0 0 0 0 0 0 0 0 0 0 0 0 0 0 0 0 0 0 0 0 0 0 0 0 0 0 0 0 0 0 0 0 0 0 0 0 0 0 0 0
0 0 0 0 0 0 0 0 0 0 0 0 0 0 0 0 0 0 0 0 0 0 0 0 0 0 0 0 0 0 0 0 0 0 0 0 0 0 0 0 0 0 0 0
0 0 0 0 0 0 0 0 0 0 0 0 0 0 0 0 0 0 0 0 0 0 0 0 0 0 0 0 0 0 0 0 0 0 0 0 0 0 0 0 0 0 0 0
0 0 0 0 0 0 0 0 0 0 0 0 0 0 0 0 0 0 0 0 0 0 0 0 0 0 0 0 0 0 0 0 0 0 0 0 0 0 0 0 0 0 0 0
0 0 0 0 0 0 0 0 0 0 0 0 0 0 0 0 0 0 0 0 0 0 0 0 0 0 0 0 0 0 0 0 0 0 0 0 0 0 0 0 0 0 0 0
0 0 0 0 0 0 0 0 0 0 0 0 0 0 0 0 0 0 0 0 0 0 0 0 0 0 0 0 0 0 0 0 0 0 0 0 0 0 0 0 0 0 0 0
0 0 0 0 0 0 0 0 0 0 0 0 0 0 0 0 0 0 0 0 0 0 0 0 0 0 0 0 0 0 0 0 0 0 0 0 0 0 0 0 0 0 0 0
0 0 0 0 0 0 0 0 0 0 0 0 0 0 0 0 0 0 0 0 0 0 0 0 0 0 0 0 0 0 0 0 0 0 0 0 0 0 0 0 0 0 0 0
0 0 0 0 0 0 0 0 0 0 0 0 0 0 0 0 0 0 0 0 0 0 0 0 0 0 0 0 0 0 0 0 0 0 0 0 0 0 0 0 0 0 0 0
0 0 0 0 0 0 0 0 0 0 0 0 0 0 0 0 0 0 0 0 0 0 0 0 0 0 0 0 0 0 0 0 0 0 0 0 0 0 0 0 0 0 0 0
0 0 0 0 0 0 0 0 0 0 0 0 0 0 0 0 0 0 0 0 0 0 0 0 0 0 0 0 0 0 0 0 0 0 0 0 0 0 0 0 0 0 0 0
1 0 0 0 0 0 0 0 0 0 0 0 0 0 0 0 0 0 0 0 0 0 0 0 0 0 0 0 0 0 0 0 0 0 0 0 0 0 0 0 0 0 0 0
0 0 0 0 0 0 0 0 0 0 0 0 0 0 0 0 0 0 0 0 0 0 0 0 0 0 0 0 0 0 0 0 0 0 0 0 0 0 0 0 0 0 0 0
0 0 0 0 0 0 0 0 0 0 0 0 0 0 0 0 0 0 0 0 0 0 0 0 0 0 0 0 0 0 0 0 0 0 0 0 0 0 0 0 0 0 0 0
0 0 0 0 0 0 0 0 0 0 0 0 0 0 0 0 0 0 0 0 0 0 0 0 0 0 0 0 0 0 0 0 0 0 0 0 0 0 0 0 0 0 0 0
0 0 0 0 0 0 0 0 0 0 0 0 0 0 0 0 0 0 0 0 0 0 0 0 0 0 0 0 0 0 0 0 0 0 0 0 0 0 0 0 0 0 0 0
0 0 0 0 0 0 0 0 0 0 0 0 0 0 0 0 0 0 0 0 0 0 0 0 0 0 0 0 0 0 0 0 0 0 0 0 0 0 0 0 0 0 0 0
2 2 2 2 2 2 1 1 1 1 1 1 1 1 1 2 2 1 0 0 0 0 0 0 0 0 0 0 0 0 0 0 0 0 0 0 0 0 0 0 0 0 0 1
CIN
-0 -0 -0 -0 -0 -0 -0 -0 -0 -0 -0 -0 -0 -0 -0 -0 -0 -0 -0 -0 -0 -0 -0 -0 -0 -0 -0 -0 -0 -0 -0 -0 -0 -0 -0 -0 -0 -0 -0 -0 -0 -0 -0 -0
-0 -0 -0 -0 -0 -0 -0 -0 -0 -0 -0 -0 -0 -0 -0 -0 -0 -0 -0 -0 -0 -0 -0 -0 -0 -0 -0 -0 -0 -0 -0 -0 -0 -0 -0 -0 -0 -0 -0 -0 -0 -0 -0 -0
-0 -0 -0 -0 -0 -0 -0 -0 -0 -0 -0 -0 -0 -0 -0 -0 -0 -0 -0 -0 -0 -0 -0 -0 -0 -0 -0 -0 -0 -0 -0 -0 -0 -0 -0 -0 -0 -0 -0 -0 -0 -0 -0 -0
-0 -0 -0 -0 -0 -0 -0 -0 -0 -0 -0 -0 -0 -0 -0 -0 -0 -0 -0 -0 -0 -0 -0 -0 -0 -0 -0 -0 -0 -0 -0 -0 -0 -0 -0 -0 -0 -0 -0 -0 -0 -0 -0 -0
-0 -0 -0 -0 -0 -0 -0 -0 -0 -0 -0 -0 -0 -0 -0 -0 -0 -0 -0 -0 -0 -0 -0 -0 -0 -0 -0 -0 -0 -0 -0 -0 -0 -0 -0 -0 -0 -0 -0 -0 -0 -0 -0 -0
-0 -0 -0 -0 -0 -0 -0 -0 -0 -0 -0 -0 -0 -0 -0 -0 -0 -0 -0 -0 -0 -0 -0 -0 -0 -0 -0 -0 -0 -0 -0 -0 -0 -0 -0 -0 -0 -0 -0 -0 -0 -0 -0 -0
-0 -0 -0 -0 -0 -0 -0 -0 -0 -0 -0 -0 -0 -0 -0 -0 -0 -0 -0 -0 -0 -0 -0 -0 -0 -0 -0 -0 -0 -0 -0 -0 -0 -0 -0 -0 -0 -0 -0 -0 -0 -0 -0 -0
-0 -0 -0 -0 -0 -0 -0 -0 -0 -0 -0 -0 -0 -0 -0 -0 -0 -0 -0 -0 -0 -0 -0 -0 -0 -0 -0 -0 -0 -0 -0 -0 -0 -0 -0 -0 -0 -0 -0 -0 -0 -0 -0 -0
-0 -0 -0 -0 -0 -0 -0 -0 -0 -0 -0 -0 -0 -0 -0 -0 -0 -0 -0 -0 -0 -0 -0 -0 -0 -0 -0 -0 -0 -0 -0 -0 -0 -0 -0 -0 -0 -0 -0 -0 -0 -0 -0 -0
-0 -0 -0 -0 -0 -0 -0 -0 -0 -0 -0 -0 -0 -0 -0 -0 -0 -0 -0 -0 -0 -0 -0 -0 -0 -0 -0 -0 -0 -0 -0 -0 -0 -0 -0 -0 -0 -0 -0 -0 -0 -0 -0 -0
-0 -0 -0 -0 -0 -0 -0 -0 -0 -0 -0 -0 -0 -0 -0 -0 -0 -0 -0 -0 -0 -0 -0 -0 -0 -0 -0 -0 -0 -0 -0 -0 -0 -0 -0 -0 -0 -0 -0 -0 -0 -0 -0 -0
-0 -0 -0 -0 -0 -0 -0 -0 -0 -0 -0 -0 -0 -0 -0 -0 -0 -0 -0 -0 -0 -0 -0 -0 -0 -0 -0 -0 -0 -0 -0 -0 -0 -0 -0 -0 -0 -0 -0 -0 -0 -0 -0 -0
-0 -0 -0 -0 -0 -0 -0 -0 -0 -0 -0 -0 -0 -0 -0 -0 -0 -0 -0 -0 -0 -0 -0 -0 -0 -0 -0 -0 -0 -0 -0 -0 -0 -0 -0 -0 -0 -0 -0 -0 -0 -0 -0 -0
-0 -0 -0 -0 -0 -0 -0 -0 -0 -0 -0 -0 -0 -0 -0 -0 -0 -0 -0 -0 -0 -0 -0 -0 -0 -0 -0 -0 -0 -0 -0 -0 -0 -0 -0 -0 -0 -0 -0 -0 -0 -0 -0 -0
-0 -0 -0 -0 -0 -0 -0 -0 -0 -0 -0 -0 -0 -0 -0 -0 -0 -0 -0 -0 -0 -0 -0 -0 -0 -0 -0 -0 -0 -0 -0 -0 -0 -0 -0 -0 -0 -0 -0 -0 -0 -0 -0 -0
-0 -0 -0 -0 -0 -0 -0 -0 -0 -0 -0 -0 -0 -0 -0 -0 -0 -0 -0 -0 -0 -0 -0 -0 -0 -0 -0 -0 -0 -0 -0 -0 -0 -0 -0 -0 -0 -0 -0 -0 -0 -0 -0 -0
-0 -0 -0 -0 -0 -0 -0 -0 -0 -0 -0 -0 -0 -0 -0 -0 -0 -0 -0 -0 -0 -0 -0 -0 -0 -0 -0 -0 -0 -0 -0 -0 -0 -0 -0 -0 -0 -0 -0 -0 -0 -0 -0 -0
-0 -0 -0 -0 -0 -0 -0 -0 -0 -0 -0 -0 -0 -0 -0 -0 -0 -0 -0 -0 -0 -0 -0 -0 -0 -0 -0 -0 -0 -0 -0 -0 -0 -0 -0 -0 -0 -0 -0 -0 -0 -0 -0 -0
-0 -0 -0 -0 -0 -0 -0 -0 -0 -0 -0 -0 -0 -0 -0 -0 -0 -0 -0 -0 -0 -0 -0 -0 -0 -0 -0 -0 -0 -0 -0 -0 -0 -0 -0 -0 -0 -0 -0 -0 -0 -0 -0 -0
-0 -0 -0 -0 -0 -0 -0 -0 -0 -0 -0 -0 -0 -0 -0 -0 -0 -0 -0 -0 -0 -0 -0 -0 -0 -0 -0 -0 -0 -0 -0 -0 -0 -0 -0 -0 -0 -0 -0 -0 -0 -0 -0 -0
-16 -0 -0 -12 -0 -0 -0 -0 -0 -0 -0 -0 -0 -0 -0 -0 -0 -0 -0 -0 -0 -0 -0 -0 -0 -0 -0 -0 -0 -0 -0 -0 -0 -0 -0 -0 -0 -0 -0 -0 -0 -0 -0 -0
-0 -0 -0 -0 -0 -0 -0 -0 -0 -0 -0 -0 -0 -0 -0 -0 -0 -0 -0 -0 -0 -0 -0 -0 -0 -0 -0 -0 -0 -0 -0 -0 -0 -0 -0 -0 -0 -0 -0 -0 -0 -0 -0 -0
-0 -0 -0 -0 -0 -0 -0 -0 -0 -0 -0 -0 -0 -0 -0 -0 -0 -0 -0 -0 -0 -0 -0 -0 -0 -0 -0 -0 -0 -0 -0 -0 -0 -0 -0 -0 -0 -0 -0 -0 -0 -0 -0 -0
-0 -0 -0 -0 -0 -0 -0 -0 -0 -0 -0 -0 -0 -0 -0 -0 -0 -0 -0 -0 -0 -0 -0 -0 -0 -0 -0 -0 -0 -0 -0 -0 -0 -0 -0 -0 -0 -0 -0 -0 -0 -0 -0 -0
-0 -0 -0 -0 -0 -0 -0 -0 -0 -0 -0 -0 -0 -0 -0 -0 -0 -0 -0 -0 -0 -0 -0 -0 -0 -0 -0 -0 -0 -0 -0 -0 -0 -0 -0 -0 -0 -0 -0 -0 -0 -1 -0 -0
-0 -0 -0 -0 -0 -0 -0 -0 -0 -0 -0 -0 -0 -0 -0 -0 -0 -0 -0 -0 -0 -0 -0 -0 -0 -0 -0 -0 -0 -0 -0 -0 -0 -0 -0 -0 -0 -0 -0 -0 -0 -0 -0 -0
-0 -0 -0 -0 -0 -0 -0 -0 -0 -0 -0 -0 -0 -0 -0 -0 -0 -0 -0 -0 -0 -0 -0 -0 -0 -0 -0 -0 -0 -0 -0 -0 -0 -0 -0 -0 -0 -0 -0 -0 -1 -0 -0 -1
Wind_Speed
44 45 37 38 36 36 48 50 44 41 50 46 40 28 24 19 19 14 12 11 11 10 8 8 7 7 6 6 6 5 5 4 3 3 6 10 14 19 23 25 26 26 26 25
49 45 46 49 47 46 44 49 54 54 56 44 40 36 32 24 19 20 17 14 14 13 12 10 10 9 8 8 8 8 7 7 5 5 7 11 15 19 23 26 27 27 27 27
51 42 45 54 58 55 49 47 42 57 50 38 44 42 37 34 32 25 18 19 18 17 16 14 13 12 11 11 9 9 9 8 7 7 9 11 15 19 23 26 27 28 29 29
44 36 51 45 33 34 45 47 40 52 44 39 33 35 34 30 31 26 23 22 20 20 19 18 17 15 13 12 12 12 11 11 10 9 10 13 16 20 23 26 28 29 30 30
44 46 52 51 37 31 34 45 39 44 43 53 40 43 48 33 29 28 27 24 22 22 21 20 20 18 16 16 15 15 15 14 12 11 12 14 17 21 23 26 29 30 30 31
42 49 55 38 31 38 34 59 33 35 35 33 32 41 41 31 31 33 32 28 27 22 21 21 21 19 20 19 18 18 17 16 14 13 14 15 18 21 24 27 29 30 31 30
54 57 54 42 27 19 34 30 20 24 22 25 29 31 31 24 21 24 26 26 24 24 25 23 20 19 21 21 21 19 17 15 15 14 14 16 19 21 25 28 29 31 31 31
54 61 72 37 36 47 31 28 26 25 22 23 23 23 22 22 27 28 30 28 25 24 22 21 19 19 21 22 20 18 16 16 15 15 15 17 20 23 26 28 30 32 32 33
44 57 52 39 36 34 36 44 36 31 29 27 27 28 27 27 30 31 29 28 26 26 23 19 18 18 20 19 17 16 15 15 14 14 15 17 20 24 28 29 30 32 32 33
48 55 50 42 41 40 36 39 40 37 35 32 34 34 32 31 32 32 29 28 26 24 22 21 18 18 18 16 14 14 14 13 13 14 17 19 21 24 28 29 31 32 33 34
60 59 49 48 43 40 39 38 42 42 38 36 34 34 35 36 35 32 30 28 26 24 22 19 17 16 15 12 11 12 12 13 15 16 19 22 25 26 28 28 29 32 32 33
59 49 52 50 46 48 49 45 42 44 46 42 39 40 38 40 38 35 31 27 25 23 22 20 18 16 13 12 12 13 15 16 17 19 21 24 27 28 27 28 28 29 30 29
59 52 47 43 40 42 44 40 41 44 42 43 41 38 37 37 36 36 32 28 27 26 24 20 18 18 15 14 13 15 16 18 19 21 24 26 27 29 32 30 29 29 28 26
58 60 59 56 52 47 47 47 44 43 43 40 40 38 38 39 38 37 35 33 30 27 25 22 21 20 16 15 15 17 18 19 22 24 25 26 28 29 30 31 33 32 27 25
57 58 59 60 57 55 52 51 54 54 50 49 45 43 41 43 43 41 39 35 31 28 26 24 23 22 17 16 18 19 20 22 23 24 25 26 28 29 30 31 31 30 29 25
53 61 61 63 63 59 57 56 56 54 52 51 51 48 46 45 43 40 35 29 27 28 26 25 24 21 18 19 19 20 21 22 23 24 26 27 28 29 30 30 29 28 27 27
52 56 55 57 57 57 56 57 56 53 49 47 49 45 42 42 41 39 35 32 30 29 26 24 24 20 20 19 20 21 22 23 24 25 27 28 29 29 29 28 27 27 26 24
55 55 59 59 58 55 54 54 54 56 57 53 48 44 41 39 39 37 34 30 28 28 26 24 21 20 19 18 19 20 21 23 24 26 27 27 28 27 26 26 26 26 26 25
60 59 58 54 52 55 55 55 53 49 49 51 49 49 47 44 39 34 28 27 28 27 25 20 18 18 18 17 18 19 21 23 24 25 25 25 25 25 25 25 25 24 24 24
57 55 52 54 51 51 51 51 50 47 46 41 37 38 38 36 31 29 26 27 27 25 19 16 16 16 16 16 18 19 21 21 22 23 23 23 24 25 24 24 23 24 23 24
49 50 49 49 51 48 45 51 48 48 45 39 38 34 32 29 26 25 25 25 22 17 16 15 15 15 15 16 17 18 19 20 21 22 22 24 24 23 24 24 24 24 25 25
38 38 40 46 48 48 45 47 45 45 43 42 38 33 27 25 22 21 21 20 18 15 15 15 15 14 14 15 16 18 19 19 20 20 22 24 24 24 24 24 25 25 26 27
43 42 44 47 49 48 46 42 40 35 32 31 27 24 23 22 20 20 20 17 14 12 12 12 11 12 13 16 18 18 19 21 21 22 22 22 23 23 24 25 27 29 30 29
39 39 41 41 40 33 30 27 25 24 22 21 20 19 18 19 19 16 11 10 9 7 8 11 13 15 16 17 17 18 20 21 22 22 23 23 23 24 26 27 29 29 28 27
26 25 24 22 20 20 17 16 15 15 16 17 18 17 16 14 14 9 7 6 6 9 12 13 14 14 14 15 16 19 20 21 21 22 22 22 24 26 27 28 28 27 27 28
19 19 18 17 16 15 14 12 12 12 10 10 10 9 7 4 3 3 6 9 10 10 11 11 12 13 16 17 18 18 19 19 19 20 22 24 26 27 27 27 27 27 27 29
16 15 13 12 11 10 10 9 8 8 7 5 5 6 5 5 5 5 6 7 8 9 10 12 13 14 15 16 17 17 19 20 21 22 24 25 26 27 27 27 27 27 30 32
Wind_Direction
258 258 264 264 261 255 245 246 252 256 248 253 262 282 286 287 278 267 249 246 241 234 230 222 220 221 216 214 210 207 208 213 228 297 334 342 346 350 351 352 353 353 353 352
255 260 262 258 257 254 253 249 246 247 246 258 267 275 277 285 283 271 267 253 250 245 237 237 232 229 226 222 219 214 222 228 246 290 317 329 338 343 346 348 349 349 349 349
255 265 265 255 247 251 256 257 260 242 250 273 267 271 275 279 278 278 269 264 252 241 235 243 242 240 232 231 232 229 234 240 256 277 303 320 331 337 341 344 345 346 346 346
261 265 254 259 272 267 259 261 261 261 270 274 275 278 279 282 284 283 276 265 259 256 250 249 251 247 244 245 240 240 243 247 258 273 294 313 324 331 337 340 341 342 343 343
259 258 260 259 266 269 269 266 269 268 272 261 275 276 273 282 284 285 284 278 266 260 254 254 249 250 247 250 250 249 249 252 257 267 288 306 317 326 332 336 338 339 341 341
262 258 256 270 275 269 273 261 279 277 275 275 278 273 279 289 286 285 284 280 281 273 265 259 254 255 251 252 252 251 253 251 257 268 284 300 314 323 329 333 335 337 338 340
256 257 261 264 282 290 266 279 303 301 285 280 278 282 290 291 294 298 301 298 285 281 275 267 263 258 253 255 253 259 262 259 261 270 284 302 314 322 327 330 333 334 335 337
255 255 255 268 267 260 276 288 294 300 304 299 299 298 297 294 296 298 297 297 297 292 283 277 268 257 257 256 265 266 264 261 264 276 289 303 313 321 325 329 330 331 333 335
253 256 262 279 275 275 272 272 279 286 291 295 297 298 298 297 298 300 300 299 298 293 289 284 276 267 265 266 266 265 264 264 269 280 292 305 313 319 323 326 327 329 331 333
261 260 264 271 275 274 278 276 279 284 287 289 288 290 290 295 298 298 298 299 299 297 291 287 283 279 275 271 266 263 266 269 275 285 298 307 314 319 322 324 325 327 329 330
259 260 267 268 272 277 277 278 278 280 285 285 286 289 290 293 296 296 296 296 296 295 292 289 288 285 281 269 261 265 270 276 284 294 302 309 314 318 320 323 325 326 327 329
259 269 264 267 269 272 275 278 280 280 281 282 283 285 287 288 291 292 292 293 293 293 291 289 286 284 278 272 270 270 277 284 291 298 304 310 314 317 321 322 325 327 328 329
264 269 275 278 279 275 274 279 281 279 279 281 283 284 285 287 288 289 290 287 288 288 287 284 281 276 274 273 272 277 282 289 295 301 307 310 313 315 318 323 324 326 328 330
265 267 269 270 272 279 279 278 280 282 284 283 283 283 284 283 286 287 286 284 284 283 281 279 277 275 271 272 276 283 290 294 299 303 307 309 313 316 318 320 321 324 326 328
266 267 269 270 274 275 277 278 276 277 279 280 282 282 283 283 284 284 286 284 281 278 277 275 274 273 270 273 279 284 290 296 301 304 307 310 313 316 318 319 321 322 326 329
268 268 269 271 271 273 273 274 275 276 276 278 279 280 281 282 283 284 284 280 274 275 275 274 272 270 269 274 280 286 293 297 302 305 307 310 313 315 317 318 319 322 325 327
270 269 271 271 271 273 272 272 274 274 277 277 278 282 281 280 281 280 278 276 275 275 274 272 271 269 271 274 279 287 293 298 301 304 307 309 311 313 316 318 320 322 324 327
266 271 271 272 273 274 275 275 275 275 272 275 277 280 279 279 278 279 278 276 274 275 273 271 268 267 269 272 280 287 292 297 301 304 308 310 312 315 317 319 320 323 326 329
263 266 271 273 273 273 274 275 276 278 275 274 273 272 274 277 277 277 276 272 271 271 273 270 263 264 269 276 284 290 295 300 304 306 309 312 315 317 318 319 321 323 325 328
267 268 270 272 272 273 274 273 273 274 274 277 275 270 272 273 272 270 271 271 270 272 268 264 264 267 273 281 288 294 298 302 305 308 310 314 317 318 319 320 322 323 325 326
270 271 270 270 271 272 274 271 272 272 273 272 270 269 267 270 270 267 268 271 279 272 264 264 269 274 282 285 293 298 301 303 307 310 311 315 318 318 318 320 322 324 325 326
281 278 273 271 271 270 272 271 271 269 269 269 268 267 265 265 268 273 274 269 273 269 267 270 277 281 289 295 300 305 304 306 311 313 315 316 320 320 319 321 322 323 324 326
280 279 277 273 269 270 271 272 271 269 270 268 265 261 262 263 266 268 273 274 270 269 273 280 286 292 299 302 305 307 308 312 312 314 318 320 322 321 322 323 322 323 324 326
285 282 280 278 271 269 269 272 269 267 266 267 266 265 263 265 275 278 270 270 269 272 286 292 297 302 306 308 310 310 311 313 315 318 319 322 323 323 321 322 324 326 328 329
301 297 298 295 285 276 273 281 285 282 274 274 278 281 281 280 264 260 261 269 280 292 295 303 307 310 312 313 310 311 314 316 317 320 322 324 326 323 323 326 327 330 330 330
317 314 311 311 297 288 286 293 294 294 292 287 291 288 284 279 280 293 293 300 310 316 312 314 319 319 314 313 316 320 321 323 325 326 326 325 325 326 329 332 332 331 331 330
336 332 335 339 324 314 333 336 325 320 322 312 293 299 304 310 333 340 343 345 343 334 329 333 332 326 324 324 326 329 328 328 327 327 328 330 331 330 330 330 331 330 329 329